| time (UTC) | temp F | wind direction | speed knots | gust knots | rain 1hr in | rain 24hr in | rain mn in | humidity % | barometer mb |
| 20260509135433 | 74 | 265 | 0.9 | 1.7 | 0.00 | 0.00 | 0.00 | 93 | 1009.9 |
| 20260509134930 | 74 | 205 | 0.9 | 1.7 | 0.00 | 0.00 | 0.00 | 93 | 1010.0 |
| 20260509134427 | 73 | 185 | 1.7 | 1.7 | 0.00 | 0.00 | 0.00 | 94 | 1010.1 |
| 20260509133925 | 73 | 249 | 0.9 | 0.9 | 0.00 | 0.00 | 0.00 | 95 | 1010.0 |
| 20260509133421 | 73 | 201 | 0.9 | 1.7 | 0.00 | 0.00 | 0.00 | 96 | 1009.9 |
| 20260509132920 | 73 | 246 | 0.0 | 0.9 | 0.00 | 0.00 | 0.00 | 96 | 1010.1 |
| 20260509132417 | 72 | 246 | 1.7 | 1.7 | 0.00 | 0.00 | 0.00 | 96 | 1010.2 |
| 20260509131914 | 72 | 241 | 0.9 | 1.7 | 0.00 | 0.00 | 0.00 | 96 | 1010.1 |
| 20260509131411 | 72 | 229 | 0.9 | 2.6 | 0.00 | 0.00 | 0.00 | 97 | 1010.1 |
| 20260509130908 | 72 | 247 | 1.7 | 2.6 | 0.00 | 0.00 | 0.00 | 97 | 1010.1 |
| 20260509130403 | 72 | 273 | 0.9 | 1.7 | 0.00 | 0.00 | 0.00 | 97 | 1009.9 |
| 20260509125900 | 72 | 255 | 1.7 | 1.7 | 0.00 | 0.00 | 0.00 | 97 | 1010.0 |
| 20260509125357 | 72 | 223 | 0.0 | 1.7 | 0.00 | 0.00 | 0.00 | 97 | 1010.1 |
| 20260509124852 | 72 | 246 | 0.0 | 0.0 | 0.00 | 0.00 | 0.00 | 97 | 1010.2 |
| 20260509124350 | 71 | 258 | 1.7 | 1.7 | 0.00 | 0.00 | 0.00 | 97 | 1010.1 |
| 20260509123848 | 71 | 185 | 0.9 | 1.7 | 0.00 | 0.00 | 0.00 | 97 | 1010.1 |
| 20260509123345 | 71 | 183 | 0.9 | 1.7 | 0.00 | 0.00 | 0.00 | 97 | 1010.0 |
| 20260509122840 | 71 | 283 | 0.0 | 2.6 | 0.00 | 0.00 | 0.00 | 97 | 1010.2 |
| 20260509122337 | 71 | 235 | 1.7 | 3.5 | 0.00 | 0.00 | 0.00 | 97 | 1010.1 |
| 20260509121834 | 71 | 252 | 0.0 | 3.5 | 0.00 | 0.00 | 0.00 | 97 | 1009.9 |
| 20260509121331 | 71 | 264 | 1.7 | 3.5 | 0.00 | 0.00 | 0.00 | 98 | 1010.0 |
| 20260509120830 | 71 | 233 | 0.0 | 1.7 | 0.00 | 0.00 | 0.00 | 98 | 1009.9 |
| 20260509120327 | 71 | 236 | 0.0 | 1.7 | 0.00 | 0.00 | 0.00 | 98 | 1010.0 |
| 20260509115825 | 71 | 241 | 0.9 | 2.6 | 0.00 | 0.00 | 0.00 | 98 | 1009.9 |
| 20260509115322 | 71 | 269 | 0.0 | 1.7 | 0.00 | 0.00 | 0.00 | 98 | 1009.5 |
| 20260509114820 | 71 | 175 | 0.9 | 0.9 | 0.00 | 0.00 | 0.00 | 98 | 1009.6 |
| 20260509114318 | 71 | 142 | 0.0 | 0.9 | 0.00 | 0.00 | 0.00 | 98 | 1009.6 |
| 20260509113817 | 71 | 145 | 1.7 | 2.6 | 0.00 | 0.00 | 0.00 | 98 | 1009.6 |
| 20260509113313 | 71 | 189 | 0.0 | 0.9 | 0.00 | 0.00 | 0.00 | 98 | 1009.2 |
| 20260509112810 | 71 | 223 | 0.0 | 2.6 | 0.00 | 0.00 | 0.00 | 98 | 1009.0 |
| 20260509112308 | 71 | 302 | 0.0 | 2.6 | 0.00 | 0.00 | 0.00 | 98 | 1009.1 |
| 20260509111805 | 71 | 201 | 0.0 | 1.7 | 0.00 | 0.00 | 0.00 | 98 | 1008.7 |
| 20260509111301 | 71 | 53 | 0.0 | 2.6 | 0.00 | 0.00 | 0.00 | 98 | 1008.5 |
| 20260509110759 | 71 | 204 | 0.9 | 4.3 | 0.00 | 0.00 | 0.00 | 98 | 1008.4 |
| 20260509110255 | 71 | 5 | 1.7 | 1.7 | 0.00 | 0.00 | 0.00 | 98 | 1007.8 |
| 20260509105754 | 70 | 157 | 0.0 | 1.7 | 0.00 | 0.00 | 0.00 | 98 | 1007.8 |
| 20260509105251 | 71 | 315 | 0.0 | 0.9 | 0.00 | 0.00 | 0.00 | 98 | 1008.0 |
| 20260509104747 | 71 | 10 | 3.5 | 3.5 | 0.00 | 0.00 | 0.00 | 98 | 1008.1 |
| 20260509104244 | 70 | 246 | 0.9 | 1.7 | 0.00 | 0.00 | 0.00 | 98 | 1008.1 |
| 20260509103743 | 70 | 0 | 0.0 | 1.7 | 0.00 | 0.00 | 0.00 | 98 | 1008.0 |
| 20260509103239 | 70 | 286 | 0.0 | 0.9 | 0.00 | 0.00 | 0.00 | 98 | 1008.0 |
| 20260509102738 | 70 | 182 | 0.9 | 1.7 | 0.00 | 0.00 | 0.00 | 98 | 1008.2 |
| 20260509102234 | 70 | 224 | 0.0 | 3.5 | 0.00 | 0.00 | 0.00 | 98 | 1008.0 |
| 20260509101731 | 70 | 84 | 0.9 | 1.7 | 0.00 | 0.00 | 0.00 | 98 | 1008.0 |
| 20260509101227 | 70 | 172 | 0.0 | 0.9 | 0.00 | 0.00 | 0.00 | 98 | 1008.2 |
| 20260509100724 | 70 | 147 | 0.0 | 0.9 | 0.00 | 0.00 | 0.00 | 98 | 1008.3 |
| 20260509100222 | 70 | 237 | 0.0 | 0.9 | 0.00 | 0.00 | 0.00 | 97 | 1008.2 |
| 20260509095718 | 70 | 304 | 0.0 | 1.7 | 0.00 | 0.00 | 0.00 | 97 | 1008.4 |
| 20260509095216 | 70 | 320 | 0.0 | 1.7 | 0.00 | 0.00 | 0.00 | 97 | 1008.4 |
| 20260509094712 | 70 | 64 | 0.9 | 1.7 | 0.00 | 0.00 | 0.00 | 97 | 1008.4 |
| 20260509094209 | 70 | 199 | 0.0 | 0.0 | 0.00 | 0.00 | 0.00 | 97 | 1008.7 |
| 20260509093708 | 70 | 67 | 0.9 | 1.7 | 0.00 | 0.00 | 0.00 | 97 | 1008.7 |
| 20260509093204 | 70 | 202 | 0.0 | 1.7 | 0.00 | 0.00 | 0.00 | 97 | 1009.1 |
| 20260509092702 | 70 | 39 | 0.0 | 1.7 | 0.00 | 0.00 | 0.00 | 97 | 1009.2 |
| 20260509092200 | 70 | 86 | 0.9 | 1.7 | 0.00 | 0.00 | 0.00 | 96 | 1009.2 |
| 20260509091658 | 70 | 312 | 0.0 | 1.7 | 0.00 | 0.00 | 0.00 | 96 | 1009.4 |
| 20260509091154 | 70 | 310 | 0.0 | 0.0 | 0.00 | 0.00 | 0.00 | 96 | 1009.3 |
| 20260509090652 | 70 | 217 | 0.9 | 0.9 | 0.00 | 0.00 | 0.00 | 96 | 1009.1 |
| 20260509090148 | 70 | 230 | 0.0 | 0.0 | 0.00 | 0.00 | 0.00 | 96 | 1009.3 |
| 20260509085646 | 70 | 217 | 0.0 | 0.0 | 0.00 | 0.00 | 0.00 | 96 | 1009.1 |
| 20260509085142 | 70 | 229 | 0.0 | 0.9 | 0.00 | 0.00 | 0.00 | 96 | 1009.2 |
| 20260509084640 | 70 | 246 | 0.0 | 0.0 | 0.00 | 0.00 | 0.00 | 96 | 1009.2 |
| 20260509084137 | 70 | 217 | 0.0 | 0.0 | 0.00 | 0.00 | 0.00 | 96 | 1009.4 |
| 20260509083634 | 70 | 212 | 0.0 | 0.0 | 0.00 | 0.00 | 0.00 | 96 | 1009.2 |
| 20260509083130 | 70 | 269 | 0.0 | 0.0 | 0.00 | 0.00 | 0.00 | 96 | 1009.5 |
| 20260509082628 | 70 | 246 | 0.0 | 0.0 | 0.00 | 0.00 | 0.00 | 96 | 1009.5 |
| 20260509082125 | 70 | 322 | 0.0 | 0.9 | 0.00 | 0.00 | 0.00 | 96 | 1009.7 |
| 20260509081622 | 70 | 214 | 0.0 | 0.0 | 0.00 | 0.00 | 0.00 | 96 | 1009.8 |
| 20260509081119 | 70 | 306 | 0.0 | 0.0 | 0.00 | 0.00 | 0.00 | 96 | 1010.0 |
| 20260509080617 | 70 | 229 | 0.0 | 0.0 | 0.00 | 0.00 | 0.00 | 95 | 1010.0 |
| 20260509080114 | 70 | 304 | 0.0 | 0.0 | 0.00 | 0.00 | 0.00 | 95 | 1010.0 |
| 20260509075612 | 70 | 195 | 0.0 | 0.0 | 0.00 | 0.00 | 0.00 | 95 | 1010.0 |
| 20260509075110 | 70 | 195 | 0.0 | 0.0 | 0.00 | 0.00 | 0.00 | 95 | 1010.0 |
| 20260509074606 | 70 | 195 | 0.0 | 0.0 | 0.00 | 0.00 | 0.00 | 95 | 1010.0 |
| 20260509074103 | 70 | 178 | 0.9 | 0.9 | 0.00 | 0.00 | 0.00 | 95 | 1010.2 |
| 20260509073600 | 70 | 230 | 0.0 | 0.0 | 0.00 | 0.00 | 0.00 | 95 | 1010.2 |
| 20260509073056 | 70 | 227 | 0.0 | 0.9 | 0.00 | 0.00 | 0.00 | 95 | 1010.1 |
| 20260509072553 | 70 | 195 | 0.0 | 0.0 | 0.00 | 0.00 | 0.00 | 95 | 1010.2 |
| 20260509072049 | 70 | 195 | 0.0 | 0.0 | 0.00 | 0.00 | 0.00 | 95 | 1010.2 |
| 20260509071546 | 70 | 195 | 0.0 | 0.0 | 0.00 | 0.00 | 0.00 | 95 | 1010.2 |
| 20260509071044 | 70 | 239 | 0.9 | 0.9 | 0.00 | 0.00 | 0.00 | 95 | 1010.2 |
| 20260509070541 | 70 | 217 | 0.0 | 0.0 | 0.00 | 0.00 | 0.00 | 95 | 1010.1 |
| 20260509070037 | 70 | 342 | 2.6 | 2.6 | 0.00 | 0.00 | 0.00 | 95 | 1010.1 |
| 20260509065532 | 70 | 229 | 0.0 | 0.9 | 0.00 | 0.00 | 0.00 | 95 | 1010.0 |
| 20260509065029 | 70 | 202 | 0.0 | 0.0 | 0.00 | 0.00 | 0.00 | 95 | 1010.0 |
| 20260509064527 | 70 | 202 | 0.0 | 0.0 | 0.00 | 0.00 | 0.00 | 95 | 1010.2 |
| 20260509064025 | 70 | 235 | 0.0 | 0.9 | 0.00 | 0.00 | 0.00 | 95 | 1010.3 |
| 20260509063519 | 70 | 217 | 0.0 | 0.9 | 0.00 | 0.00 | 0.00 | 95 | 1010.3 |
| 20260509063017 | 70 | 235 | 0.0 | 0.0 | 0.00 | 0.00 | 0.00 | 95 | 1010.1 |
| 20260509062514 | 70 | 230 | 0.0 | 1.7 | 0.00 | 0.00 | 0.00 | 95 | 1010.3 |
| 20260509062012 | 70 | 315 | 0.0 | 0.0 | 0.00 | 0.00 | 0.00 | 94 | 1009.9 |
| 20260509061509 | 70 | 102 | 0.0 | 1.7 | 0.00 | 0.00 | 0.00 | 94 | 1009.7 |
| 20260509061006 | 70 | 310 | 0.0 | 1.7 | 0.00 | 0.00 | 0.00 | 94 | 1009.6 |
| 20260509060503 | 70 | 69 | 0.0 | 3.5 | 0.00 | 0.00 | 0.00 | 94 | 1009.3 |
| 20260509055959 | 70 | 5 | 0.9 | 3.5 | 0.00 | 0.00 | 0.00 | 94 | 1008.8 |
| 20260509055454 | 70 | 137 | 0.0 | 0.9 | 0.00 | 0.00 | 0.00 | 93 | 1009.7 |
| 20260509054951 | 70 | 230 | 0.0 | 0.0 | 0.00 | 0.00 | 0.00 | 93 | 1010.3 |
| 20260509054448 | 70 | 195 | 0.0 | 0.0 | 0.00 | 0.00 | 0.00 | 93 | 1010.5 |
| 20260509053946 | 70 | 217 | 0.0 | 0.9 | 0.00 | 0.00 | 0.00 | 93 | 1010.6 |
| 20260509053444 | 70 | 242 | 0.0 | 0.0 | 0.00 | 0.00 | 0.00 | 93 | 1010.8 |
| 20260509052941 | 70 | 242 | 0.0 | 0.0 | 0.00 | 0.00 | 0.00 | 93 | 1010.8 |
| 20260509052438 | 70 | 242 | 0.0 | 0.0 | 0.00 | 0.00 | 0.00 | 93 | 1010.8 |
| 20260509051936 | 70 | 269 | 0.0 | 0.0 | 0.00 | 0.00 | 0.00 | 93 | 1010.7 |
| 20260509051433 | 70 | 230 | 0.0 | 0.0 | 0.00 | 0.00 | 0.00 | 93 | 1010.8 |
| 20260509050930 | 70 | 246 | 0.0 | 0.0 | 0.00 | 0.00 | 0.00 | 93 | 1010.7 |
| 20260509050427 | 70 | 230 | 0.0 | 0.0 | 0.00 | 0.00 | 0.00 | 93 | 1010.6 |
| 20260509045924 | 70 | 230 | 0.0 | 0.0 | 0.00 | 0.00 | 0.00 | 93 | 1010.5 |
| 20260509045421 | 70 | 297 | 0.0 | 0.0 | 0.00 | 0.00 | 0.00 | 93 | 1010.5 |
| 20260509044918 | 70 | 309 | 0.0 | 0.9 | 0.00 | 0.00 | 0.00 | 93 | 1010.5 |
| 20260509044415 | 70 | 217 | 0.0 | 0.0 | 0.00 | 0.00 | 0.00 | 93 | 1010.2 |
| 20260509043912 | 70 | 217 | 0.0 | 0.0 | 0.00 | 0.00 | 0.00 | 92 | 1010.3 |
| 20260509043408 | 70 | 217 | 0.0 | 0.0 | 0.00 | 0.00 | 0.00 | 92 | 1010.1 |
| 20260509042904 | 70 | 217 | 0.0 | 0.0 | 0.00 | 0.00 | 0.00 | 92 | 1010.2 |
| 20260509042401 | 70 | 230 | 0.0 | 0.0 | 0.00 | 0.00 | 0.00 | 92 | 1010.3 |
| 20260509041857 | 70 | 229 | 0.0 | 0.0 | 0.00 | 0.00 | 0.00 | 92 | 1010.2 |
| 20260509041354 | 70 | 209 | 0.0 | 0.9 | 0.00 | 0.00 | 0.00 | 92 | 1010.0 |
| 20260509040852 | 71 | 248 | 0.0 | 0.0 | 0.00 | 0.00 | 0.00 | 92 | 1009.9 |
| 20260509040350 | 71 | 217 | 0.0 | 0.0 | 0.00 | 0.00 | 0.00 | 92 | 1009.8 |
| 20260509035847 | 71 | 217 | 0.0 | 0.0 | 0.00 | 0.00 | 0.00 | 92 | 1009.8 |
| 20260509035344 | 71 | 224 | 0.0 | 0.0 | 0.00 | 0.00 | 0.00 | 92 | 1009.7 |
| 20260509034840 | 71 | 224 | 0.0 | 0.0 | 0.00 | 0.00 | 0.00 | 92 | 1009.7 |
| 20260509034338 | 71 | 217 | 0.0 | 0.0 | 0.00 | 0.00 | 0.00 | 91 | 1009.4 |
| 20260509033834 | 71 | 217 | 0.0 | 0.0 | 0.00 | 0.00 | 0.00 | 91 | 1009.5 |
| 20260509033332 | 71 | 217 | 0.0 | 0.0 | 0.00 | 0.00 | 0.00 | 91 | 1009.6 |
| 20260509032828 | 71 | 202 | 0.0 | 0.0 | 0.00 | 0.00 | 0.00 | 91 | 1009.6 |
| 20260509032326 | 71 | 217 | 0.0 | 0.0 | 0.00 | 0.00 | 0.00 | 91 | 1009.7 |
| 20260509031824 | 71 | 217 | 0.0 | 0.0 | 0.00 | 0.00 | 0.00 | 91 | 1009.6 |
| 20260509031320 | 71 | 217 | 0.0 | 0.0 | 0.00 | 0.00 | 0.00 | 91 | 1009.7 |
| 20260509030818 | 71 | 217 | 0.0 | 0.0 | 0.00 | 0.00 | 0.00 | 91 | 1009.5 |
| 20260509030316 | 71 | 217 | 0.0 | 0.0 | 0.00 | 0.00 | 0.00 | 91 | 1009.5 |
| 20260509025812 | 71 | 217 | 0.0 | 0.0 | 0.00 | 0.00 | 0.00 | 91 | 1009.4 |
| 20260509025308 | 71 | 217 | 0.0 | 0.0 | 0.00 | 0.00 | 0.00 | 91 | 1009.4 |
| 20260509024804 | 71 | 217 | 0.0 | 0.0 | 0.00 | 0.00 | 0.00 | 90 | 1009.4 |
| 20260509024300 | 71 | 230 | 0.0 | 0.0 | 0.00 | 0.00 | 0.00 | 90 | 1009.1 |
| 20260509023757 | 71 | 230 | 0.0 | 0.0 | 0.00 | 0.00 | 0.00 | 90 | 1009.1 |
| 20260509023254 | 71 | 224 | 0.0 | 0.0 | 0.00 | 0.00 | 0.00 | 90 | 1009.2 |
| 20260509022750 | 71 | 217 | 0.0 | 0.0 | 0.00 | 0.00 | 0.00 | 90 | 1009.0 |
| 20260509022248 | 71 | 218 | 0.0 | 0.0 | 0.00 | 0.00 | 0.00 | 90 | 1009.0 |
| 20260509021745 | 71 | 218 | 0.0 | 0.0 | 0.00 | 0.00 | 0.00 | 90 | 1008.7 |
| 20260509021242 | 71 | 218 | 0.0 | 0.0 | 0.00 | 0.00 | 0.00 | 89 | 1008.8 |
| 20260509020740 | 71 | 242 | 0.0 | 0.0 | 0.00 | 0.00 | 0.00 | 89 | 1008.7 |
| 20260509020237 | 71 | 235 | 0.0 | 0.0 | 0.00 | 0.00 | 0.00 | 89 | 1008.7 |
| 20260509015735 | 71 | 217 | 0.0 | 0.0 | 0.00 | 0.00 | 0.00 | 89 | 1008.6 |
| 20260509015233 | 71 | 212 | 0.0 | 0.9 | 0.00 | 0.00 | 0.00 | 89 | 1008.6 |
| 20260509014729 | 71 | 217 | 0.0 | 0.9 | 0.00 | 0.00 | 0.00 | 89 | 1008.5 |
| 20260509014226 | 72 | 242 | 0.0 | 0.0 | 0.00 | 0.00 | 0.00 | 88 | 1008.4 |
| 20260509013723 | 72 | 242 | 0.0 | 0.0 | 0.00 | 0.00 | 0.00 | 88 | 1008.3 |
| 20260509013218 | 72 | 269 | 0.0 | 0.9 | 0.00 | 0.00 | 0.00 | 88 | 1008.2 |
| 20260509012715 | 72 | 217 | 0.0 | 0.0 | 0.00 | 0.00 | 0.00 | 88 | 1008.2 |
| 20260509012212 | 72 | 217 | 0.0 | 0.0 | 0.00 | 0.00 | 0.00 | 87 | 1008.2 |
| 20260509011710 | 72 | 217 | 0.0 | 0.0 | 0.00 | 0.00 | 0.00 | 87 | 1008.1 |
| 20260509011207 | 73 | 217 | 0.0 | 0.0 | 0.00 | 0.00 | 0.00 | 86 | 1008.0 |
| 20260509010705 | 73 | 230 | 0.0 | 0.0 | 0.00 | 0.00 | 0.00 | 85 | 1008.3 |
| 20260509010201 | 73 | 235 | 0.0 | 0.0 | 0.00 | 0.00 | 0.00 | 85 | 1008.2 |
| 20260509005658 | 73 | 230 | 0.0 | 0.0 | 0.00 | 0.00 | 0.00 | 84 | 1007.8 |
| 20260509005155 | 73 | 142 | 0.0 | 0.9 | 0.00 | 0.00 | 0.00 | 84 | 1008.1 |
| 20260509004650 | 74 | 154 | 0.0 | 0.0 | 0.00 | 0.00 | 0.00 | 83 | 1008.1 |
| 20260509004148 | 74 | 154 | 0.0 | 0.0 | 0.00 | 0.00 | 0.00 | 83 | 1008.1 |
| 20260509003646 | 74 | 154 | 0.0 | 0.0 | 0.00 | 0.00 | 0.00 | 82 | 1008.0 |
| 20260509003143 | 75 | 154 | 0.0 | 0.0 | 0.00 | 0.00 | 0.00 | 81 | 1008.1 |
| 20260509002640 | 75 | 155 | 0.0 | 0.9 | 0.00 | 0.00 | 0.00 | 80 | 1008.0 |
| 20260509002138 | 75 | 180 | 0.0 | 0.0 | 0.00 | 0.00 | 0.00 | 78 | 1008.0 |
| 20260509001635 | 76 | 217 | 0.0 | 0.0 | 0.00 | 0.00 | 0.00 | 78 | 1008.1 |
| 20260509001131 | 76 | 322 | 0.0 | 0.0 | 0.00 | 0.00 | 0.00 | 77 | 1008.0 |
| 20260509000629 | 77 | 322 | 0.0 | 0.9 | 0.00 | 0.00 | 0.00 | 75 | 1008.1 |
| 20260509000125 | 77 | 142 | 0.0 | 0.0 | 0.00 | 0.00 | 0.00 | 76 | 1008.0 |
| 20260508235623 | 76 | 205 | 0.0 | 0.0 | 0.00 | 0.00 | 0.00 | 77 | 1008.3 |
| 20260508235119 | 76 | 117 | 0.0 | 0.0 | 0.00 | 0.00 | 0.00 | 77 | 1008.2 |
| 20260508234617 | 77 | 115 | 0.0 | 0.9 | 0.00 | 0.00 | 0.00 | 75 | 1008.5 |
| 20260508234113 | 78 | 304 | 0.0 | 0.9 | 0.00 | 0.00 | 0.00 | 72 | 1008.1 |
| 20260508233613 | 78 | 160 | 0.0 | 3.5 | 0.00 | 0.00 | 0.00 | 72 | 1007.9 |
| 20260508233110 | 78 | 97 | 0.0 | 3.5 | 0.00 | 0.00 | 0.00 | 72 | 1007.9 |
| 20260508232607 | 79 | 284 | 0.0 | 1.7 | 0.00 | 0.00 | 0.00 | 71 | 1008.1 |
| 20260508232103 | 79 | 326 | 0.0 | 1.7 | 0.00 | 0.00 | 0.00 | 70 | 1008.1 |
| 20260508231601 | 79 | 180 | 0.0 | 1.7 | 0.00 | 0.00 | 0.00 | 70 | 1008.0 |
| 20260508231058 | 80 | 192 | 1.7 | 1.7 | 0.00 | 0.00 | 0.00 | 68 | 1007.9 |
| 20260508230554 | 79 | 357 | 0.0 | 2.6 | 0.00 | 0.00 | 0.00 | 67 | 1007.6 |
| 20260508230051 | 80 | 283 | 0.0 | 1.7 | 0.00 | 0.00 | 0.00 | 66 | 1007.5 |
| 20260508225549 | 80 | 135 | 0.0 | 2.6 | 0.00 | 0.00 | 0.00 | 67 | 1007.6 |
| 20260508225045 | 79 | 135 | 0.0 | 0.9 | 0.00 | 0.00 | 0.00 | 68 | 1007.7 |
| 20260508224543 | 79 | 189 | 0.9 | 1.7 | 0.00 | 0.00 | 0.00 | 69 | 1007.8 |
| 20260508224040 | 78 | 322 | 0.0 | 0.9 | 0.00 | 0.00 | 0.00 | 75 | 1007.8 |
| 20260508223538 | 78 | 150 | 0.0 | 0.9 | 0.00 | 0.00 | 0.00 | 72 | 1008.1 |
| 20260508223035 | 79 | 108 | 0.0 | 0.9 | 0.00 | 0.00 | 0.00 | 74 | 1008.4 |
| 20260508222532 | 77 | 109 | 0.0 | 0.9 | 0.00 | 0.00 | 0.00 | 75 | 1008.5 |
| 20260508222029 | 76 | 180 | 0.9 | 0.9 | 0.00 | 0.00 | 0.00 | 78 | 1008.8 |
| 20260508221525 | 76 | 121 | 0.0 | 1.7 | 0.00 | 0.00 | 0.00 | 77 | 1009.3 |
| 20260508221021 | 77 | 242 | 0.0 | 0.9 | 0.00 | 0.00 | 0.00 | 78 | 1009.2 |
| 20260508220518 | 75 | 163 | 0.0 | 1.7 | 0.02 | 0.00 | 0.00 | 81 | 1009.5 |
| 20260508220014 | 74 | 232 | 0.0 | 0.0 | 0.02 | 0.00 | 0.00 | 87 | 1009.4 |
| 20260508215511 | 74 | 217 | 0.0 | 1.7 | 0.00 | 0.00 | 0.00 | 85 | 1009.4 |
| 20260508215008 | 73 | 269 | 0.0 | 0.0 | 0.00 | 0.00 | 0.00 | 86 | 1009.3 |
| 20260508214506 | 73 | 256 | 0.0 | 0.9 | 0.00 | 0.00 | 0.00 | 88 | 1009.1 |
| 20260508214001 | 73 | 164 | 0.0 | 0.0 | 0.00 | 0.00 | 0.00 | 86 | 1008.6 |
| 20260508213459 | 73 | 89 | 0.0 | 0.9 | 0.00 | 0.00 | 0.00 | 84 | 1008.5 |
| 20260508212954 | 74 | 142 | 0.0 | 0.0 | 0.00 | 0.00 | 0.00 | 81 | 1008.9 |
| 20260508212451 | 74 | 109 | 0.0 | 0.9 | 0.00 | 0.00 | 0.00 | 79 | 1009.2 |
| 20260508211947 | 75 | 164 | 0.0 | 0.9 | 0.00 | 0.00 | 0.00 | 75 | 1009.8 |
| 20260508211443 | 76 | 142 | 0.0 | 0.0 | 0.00 | 0.00 | 0.00 | 72 | 1009.8 |
| 20260508210940 | 76 | 231 | 2.6 | 2.6 | 0.00 | 0.00 | 0.00 | 69 | 1010.0 |
| 20260508210437 | 77 | 167 | 0.0 | 0.0 | 0.00 | 0.00 | 0.00 | 70 | 1009.9 |
| 20260508205933 | 77 | 236 | 1.7 | 1.7 | 0.00 | 0.00 | 0.00 | 68 | 1009.8 |
| 20260508205430 | 78 | 255 | 0.0 | 0.9 | 0.00 | 0.00 | 0.00 | 65 | 1009.6 |
| 20260508204926 | 78 | 197 | 0.0 | 1.7 | 0.00 | 0.00 | 0.00 | 65 | 1009.5 |
| 20260508204424 | 78 | 202 | 0.0 | 0.9 | 0.00 | 0.00 | 0.00 | 67 | 1009.5 |
| 20260508203919 | 78 | 205 | 0.0 | 0.9 | 0.00 | 0.00 | 0.00 | 68 | 1009.9 |
| 20260508203416 | 78 | 232 | 0.0 | 0.9 | 0.00 | 0.00 | 0.00 | 65 | 1009.7 |
| 20260508202911 | 78 | 251 | 0.0 | 1.7 | 0.00 | 0.00 | 0.00 | 62 | 1009.8 |
| 20260508202409 | 78 | 269 | 0.0 | 1.7 | 0.00 | 0.00 | 0.00 | 63 | 1009.8 |
| 20260508201906 | 78 | 247 | 0.9 | 1.7 | 0.00 | 0.00 | 0.00 | 65 | 1009.8 |
| 20260508201403 | 79 | 197 | 1.7 | 1.7 | 0.00 | 0.00 | 0.00 | 65 | 1009.6 |
| 20260508200859 | 79 | 224 | 0.0 | 0.9 | 0.00 | 0.00 | 0.00 | 63 | 1009.5 |
| 20260508200356 | 79 | 264 | 0.9 | 0.9 | 0.00 | 0.00 | 0.00 | 66 | 1009.5 |
| 20260508195852 | 80 | 291 | 0.0 | 1.7 | 0.00 | 0.00 | 0.00 | 64 | 1009.5 |
| 20260508195349 | 80 | 49 | 0.0 | 1.7 | 0.00 | 0.00 | 0.00 | 60 | 1009.9 |
| 20260508194845 | 81 | 232 | 0.0 | 0.9 | 0.00 | 0.00 | 0.00 | 62 | 1010.0 |
| 20260508194342 | 81 | 225 | 0.0 | 0.9 | 0.00 | 0.00 | 0.00 | 61 | 1010.1 |
| 20260508193839 | 81 | 319 | 0.9 | 1.7 | 0.00 | 0.00 | 0.00 | 60 | 1010.2 |
| 20260508193336 | 80 | 233 | 1.7 | 2.6 | 0.00 | 0.00 | 0.00 | 57 | 1010.2 |
| 20260508192832 | 80 | 272 | 1.7 | 1.7 | 0.00 | 0.00 | 0.00 | 57 | 1010.4 |
| 20260508192329 | 78 | 38 | 0.0 | 0.0 | 0.00 | 0.00 | 0.00 | 62 | 1010.3 |
| 20260508191826 | 79 | 269 | 0.0 | 1.7 | 0.00 | 0.00 | 0.00 | 61 | 1010.6 |
| 20260508191323 | 80 | 326 | 0.0 | 2.6 | 0.00 | 0.00 | 0.00 | 60 | 1010.7 |
| 20260508190821 | 80 | 62 | 0.0 | 2.6 | 0.00 | 0.00 | 0.00 | 58 | 1010.7 |
| 20260508190317 | 81 | 210 | 0.9 | 1.7 | 0.00 | 0.00 | 0.00 | 57 | 1010.5 |
| 20260508185813 | 80 | 114 | 0.0 | 0.9 | 0.00 | 0.00 | 0.00 | 58 | 1010.6 |
| 20260508185311 | 79 | 197 | 0.0 | 1.7 | 0.00 | 0.00 | 0.00 | 59 | 1010.7 |
| 20260508184808 | 78 | 175 | 0.0 | 1.7 | 0.00 | 0.00 | 0.00 | 62 | 1011.0 |
| 20260508184305 | 77 | 89 | 0.0 | 1.7 | 0.00 | 0.00 | 0.00 | 62 | 1011.0 |
| 20260508183803 | 78 | 208 | 0.0 | 1.7 | 0.00 | 0.00 | 0.00 | 62 | 1011.2 |
| 20260508183259 | 78 | 241 | 1.7 | 3.5 | 0.00 | 0.00 | 0.00 | 59 | 1011.2 |
| 20260508182754 | 78 | 230 | 0.0 | 0.9 | 0.00 | 0.00 | 0.00 | 62 | 1011.1 |
| 20260508182251 | 79 | 104 | 0.0 | 0.9 | 0.00 | 0.00 | 0.00 | 61 | 1011.2 |
| 20260508181747 | 79 | 264 | 1.7 | 1.7 | 0.00 | 0.00 | 0.00 | 61 | 1011.2 |
| 20260508181244 | 78 | 354 | 0.9 | 2.6 | 0.00 | 0.00 | 0.00 | 62 | 1011.5 |
| 20260508180741 | 78 | 286 | 0.0 | 1.7 | 0.00 | 0.00 | 0.00 | 62 | 1011.6 |
| 20260508180238 | 79 | 117 | 0.0 | 1.7 | 0.00 | 0.00 | 0.00 | 60 | 1011.9 |
| 20260508175734 | 78 | 62 | 0.0 | 1.7 | 0.00 | 0.00 | 0.00 | 61 | 1011.6 |
| 20260508175231 | 78 | 66 | 0.0 | 2.6 | 0.00 | 0.00 | 0.00 | 61 | 1011.5 |
| 20260508174729 | 78 | 225 | 0.9 | 1.7 | 0.00 | 0.00 | 0.00 | 62 | 1012.0 |
| 20260508174226 | 77 | 234 | 1.7 | 2.6 | 0.00 | 0.00 | 0.00 | 59 | 1011.9 |
| 20260508173722 | 78 | 93 | 0.9 | 2.6 | 0.00 | 0.00 | 0.00 | 61 | 1012.2 |
| 20260508173218 | 78 | 246 | 1.7 | 2.6 | 0.00 | 0.00 | 0.00 | 60 | 1012.1 |
| 20260508172715 | 78 | 13 | 0.0 | 1.7 | 0.00 | 0.00 | 0.00 | 64 | 1012.0 |
| 20260508172212 | 77 | 269 | 0.0 | 2.6 | 0.00 | 0.00 | 0.00 | 65 | 1012.5 |
| 20260508171709 | 76 | 73 | 1.7 | 1.7 | 0.00 | 0.00 | 0.00 | 66 | 1012.4 |
| 20260508171205 | 75 | 107 | 0.0 | 1.7 | 0.00 | 0.00 | 0.00 | 66 | 1012.7 |
| 20260508170702 | 74 | 266 | 1.7 | 2.6 | 0.00 | 0.00 | 0.00 | 67 | 1012.5 |
| 20260508170200 | 73 | 44 | 0.0 | 1.7 | 0.00 | 0.00 | 0.00 | 70 | 1012.7 |
| 20260508165656 | 75 | 229 | 1.7 | 1.7 | 0.00 | 0.00 | 0.00 | 68 | 1013.0 |
| 20260508165153 | 75 | 135 | 0.0 | 3.5 | 0.00 | 0.00 | 0.00 | 67 | 1013.1 |
| 20260508164650 | 74 | 128 | 0.0 | 1.7 | 0.00 | 0.00 | 0.00 | 69 | 1013.1 |
| 20260508164146 | 74 | 309 | 0.0 | 1.7 | 0.00 | 0.00 | 0.00 | 68 | 1013.1 |
| 20260508163644 | 75 | 145 | 0.0 | 1.7 | 0.00 | 0.00 | 0.00 | 66 | 1013.4 |
| 20260508163142 | 75 | 254 | 1.7 | 3.5 | 0.00 | 0.00 | 0.00 | 67 | 1013.5 |
| 20260508162637 | 74 | 133 | 0.9 | 2.6 | 0.00 | 0.00 | 0.00 | 68 | 1013.3 |
| 20260508162135 | 73 | 289 | 0.0 | 1.7 | 0.00 | 0.00 | 0.00 | 69 | 1013.6 |
| 20260508161631 | 73 | 321 | 1.7 | 1.7 | 0.00 | 0.00 | 0.00 | 69 | 1013.7 |
| 20260508161129 | 74 | 87 | 0.0 | 0.9 | 0.00 | 0.00 | 0.00 | 69 | 1013.6 |
| 20260508160627 | 72 | 107 | 0.0 | 1.7 | 0.00 | 0.00 | 0.00 | 71 | 1013.9 |
| 20260508160125 | 72 | 224 | 0.0 | 0.9 | 0.00 | 0.00 | 0.00 | 74 | 1013.8 |
| 20260508155621 | 71 | 283 | 0.0 | 0.9 | 0.00 | 0.00 | 0.00 | 76 | 1013.9 |
| 20260508155118 | 70 | 89 | 0.0 | 0.9 | 0.00 | 0.00 | 0.00 | 72 | 1013.8 |
| 20260508154615 | 71 | 116 | 0.0 | 1.7 | 0.00 | 0.00 | 0.00 | 74 | 1014.1 |
| 20260508154106 | 71 | 207 | 0.0 | 0.9 | 0.00 | 0.00 | 0.00 | 75 | 1014.1 |
| 20260508153603 | 70 | 91 | 1.7 | 1.7 | 0.00 | 0.00 | 0.00 | 76 | 1014.3 |
| 20260508153059 | 70 | 271 | 0.9 | 1.7 | 0.00 | 0.00 | 0.00 | 77 | 1014.2 |
| 20260508152557 | 69 | 148 | 0.9 | 0.9 | 0.00 | 0.00 | 0.00 | 77 | 1014.3 |
| 20260508152051 | 69 | 82 | 0.0 | 1.7 | 0.00 | 0.00 | 0.00 | 77 | 1014.1 |
| 20260508151548 | 69 | 81 | 0.9 | 1.7 | 0.00 | 0.00 | 0.00 | 75 | 1014.2 |
| 20260508151045 | 68 | 140 | 0.0 | 1.7 | 0.00 | 0.00 | 0.00 | 79 | 1014.4 |
| 20260508150543 | 69 | 89 | 0.0 | 0.9 | 0.00 | 0.00 | 0.00 | 78 | 1014.2 |
| 20260508150038 | 69 | 195 | 0.0 | 0.9 | 0.00 | 0.00 | 0.00 | 80 | 1014.6 |
| 20260508145535 | 69 | 80 | 0.0 | 0.0 | 0.00 | 0.00 | 0.00 | 78 | 1014.4 |
| 20260508145031 | 70 | 217 | 0.0 | 1.7 | 0.00 | 0.00 | 0.00 | 77 | 1014.3 |
| 20260508144529 | 70 | 80 | 0.0 | 1.7 | 0.00 | 0.00 | 0.00 | 75 | 1014.0 |
| 20260508144026 | 71 | 92 | 0.0 | 1.7 | 0.00 | 0.00 | 0.00 | 74 | 1014.2 |
| 20260508143524 | 71 | 76 | 0.0 | 1.7 | 0.00 | 0.00 | 0.00 | 72 | 1014.2 |
| 20260508143020 | 72 | 175 | 0.0 | 0.0 | 0.00 | 0.00 | 0.00 | 73 | 1014.1 |
| 20260508142518 | 71 | 53 | 0.0 | 1.7 | 0.00 | 0.00 | 0.00 | 76 | 1014.2 |
| 20260508142014 | 71 | 180 | 0.0 | 0.9 | 0.00 | 0.00 | 0.00 | 74 | 1014.2 |
| 20260508141510 | 70 | 147 | 0.0 | 1.7 | 0.00 | 0.00 | 0.00 | 76 | 1014.0 |
| 20260508141008 | 69 | 175 | 0.9 | 1.7 | 0.00 | 0.00 | 0.00 | 79 | 1014.2 |
| 20260508140505 | 69 | 38 | 0.0 | 1.7 | 0.00 | 0.00 | 0.00 | 79 | 1014.0 |
| 20260508140000 | 68 | 157 | 0.0 | 0.0 | 0.00 | 0.00 | 0.00 | 83 | 1014.2 |